Terminal Aerodrome Forecast
Issued by NWS Denver/Boulder, CO

Home | Current Version | Previous Version | Text Only | Print | Product List | Glossary On
Versions: 1 2 3 4 5 6 7 8 9 10 11 12 13 14 15 16 17 18 19 20 21 22 23 24 25 26 27 28 29 30 31 32 33
000
FTUS45 KBOU 180744 AAA
TAFDEN
TAF AMD
KDEN 180744Z 1808/1912 32018G26KT P6SM SCT060 OVC120
     FM180805 32022G32KT P6SM VCSH SCT020 BKN060 OVC120
     FM181000 32011G18KT P6SM SCT030 BKN080
     FM181500 20010KT P6SM FEW080
     FM182000 03008KT P6SM FEW080
     FM190000 15006KT P6SM SKC
     FM190600 22008KT P6SM SCT220=

USA.gov is the U.S. government's official web portal to all federal, state and local government web resources and services.